Time,TemperatureF,DewpointF,PressureIn,WindDirection,WindDirectionDegrees,WindSpeedMPH,WindSpeedGustMPH,Humidity,HourlyPrecipIn,Conditions,Clouds,dailyrainin,SoftwareType,DateUTC
2013-11-28 00:00:00,30.1,21.8,30.39,North,5,0.0,0.0,71,0.00,,,0.00,Wunderground v.1.15,2013-11-28 06:00:00,
2013-11-28 00:10:00,30.5,22.2,30.38,North,5,0.0,0.0,71,0.00,,,0.00,Wunderground v.1.15,2013-11-28 06:10:00,
2013-11-28 00:15:00,30.6,22.3,30.38,North,5,0.0,0.0,71,0.00,,,0.00,Wunderground v.1.15,2013-11-28 06:15:00,
2013-11-28 00:20:00,30.6,22.0,30.39,North,5,0.0,0.0,70,0.00,,,0.00,Wunderground v.1.15,2013-11-28 06:20:00,
2013-11-28 00:30:00,30.7,22.1,30.39,North,5,0.0,0.0,70,0.00,,,0.00,Wunderground v.1.15,2013-11-28 06:30:00,
2013-11-28 00:35:00,30.8,22.2,30.39,North,5,0.0,0.0,70,0.00,,,0.00,Wunderground v.1.15,2013-11-28 06:35:00,
2013-11-28 00:40:00,31.0,22.0,30.39,North,5,0.0,0.0,69,0.00,,,0.00,Wunderground v.1.15,2013-11-28 06:40:00,
2013-11-28 00:45:00,31.1,22.1,30.38,North,5,0.0,0.0,69,0.00,,,0.00,Wunderground v.1.15,2013-11-28 06:45:00,
2013-11-28 00:55:00,31.0,22.0,30.37,North,5,0.0,0.0,69,0.00,,,0.00,Wunderground v.1.15,2013-11-28 06:55:00,
2013-11-28 01:00:00,30.8,22.2,30.37,North,5,0.0,0.0,70,0.00,,,0.00,Wunderground v.1.15,2013-11-28 07:00:00,
2013-11-28 01:10:00,30.6,21.6,30.36,North,5,0.0,0.0,69,0.00,,,0.00,Wunderground v.1.15,2013-11-28 07:10:00,
2013-11-28 01:15:00,30.6,22.0,30.37,North,5,0.0,0.0,70,0.00,,,0.00,Wunderground v.1.15,2013-11-28 07:15:00,
2013-11-28 01:20:00,30.5,21.9,30.37,North,5,0.0,0.0,70,0.00,,,0.00,Wunderground v.1.15,2013-11-28 07:20:00,
2013-11-28 01:25:00,30.6,22.0,30.37,North,5,0.0,0.0,70,0.00,,,0.00,Wunderground v.1.15,2013-11-28 07:25:00,
2013-11-28 01:30:00,30.6,22.0,30.37,North,5,0.0,0.0,70,0.00,,,0.00,Wunderground v.1.15,2013-11-28 07:30:00,
2013-11-28 01:35:00,30.5,22.2,30.37,North,5,0.0,0.0,71,0.00,,,0.00,Wunderground v.1.15,2013-11-28 07:35:00,
2013-11-28 01:45:00,30.6,22.3,30.38,North,5,0.0,1.0,71,0.00,,,0.00,Wunderground v.1.15,2013-11-28 07:45:00,
2013-11-28 01:50:00,30.7,22.1,30.37,NNE,12,0.0,0.0,70,0.00,,,0.00,Wunderground v.1.15,2013-11-28 07:50:00,
2013-11-28 01:55:00,30.9,21.9,30.38,ENE,67,1.0,2.0,69,0.00,,,0.00,Wunderground v.1.15,2013-11-28 07:55:00,
2013-11-28 02:00:00,31.0,22.0,30.38,ESE,118,2.0,2.0,69,0.00,,,0.00,Wunderground v.1.15,2013-11-28 08:00:00,
2013-11-28 02:10:00,31.2,21.9,30.38,SSE,162,3.0,3.0,68,0.00,,,0.00,Wunderground v.1.15,2013-11-28 08:10:00,
2013-11-28 02:15:00,31.3,22.0,30.38,SSE,163,3.0,3.0,68,0.00,,,0.00,Wunderground v.1.15,2013-11-28 08:15:00,
2013-11-28 02:25:00,31.3,21.6,30.37,SSE,163,1.0,2.0,67,0.00,,,0.00,Wunderground v.1.15,2013-11-28 08:25:00,
2013-11-28 02:30:00,31.2,21.5,30.38,SSE,163,0.0,0.0,67,0.00,,,0.00,Wunderground v.1.15,2013-11-28 08:30:00,
2013-11-28 02:35:00,31.0,21.3,30.38,SSE,163,0.0,0.0,67,0.00,,,0.00,Wunderground v.1.15,2013-11-28 08:35:00,
2013-11-28 02:45:00,30.5,21.5,30.37,SSE,163,0.0,0.0,69,0.00,,,0.00,Wunderground v.1.15,2013-11-28 08:45:00,
2013-11-28 02:50:00,30.1,21.5,30.37,SSE,163,0.0,0.0,70,0.00,,,0.00,Wunderground v.1.15,2013-11-28 08:50:00,
2013-11-28 02:55:00,29.8,21.2,30.37,SSE,164,0.0,4.0,70,0.00,,,0.00,Wunderground v.1.15,2013-11-28 08:55:00,
2013-11-28 03:05:00,29.6,21.3,30.37,SSE,163,0.0,0.0,71,0.00,,,0.00,Wunderground v.1.15,2013-11-28 09:05:00,
2013-11-28 03:15:00,29.4,21.5,30.37,SSE,163,0.0,0.0,72,0.00,,,0.00,Wunderground v.1.15,2013-11-28 09:15:00,
2013-11-28 03:20:00,29.2,21.6,30.37,SSE,163,0.0,0.0,73,0.00,,,0.00,Wunderground v.1.15,2013-11-28 09:20:00,
2013-11-28 03:25:00,29.0,21.4,30.37,SSE,163,0.0,0.0,73,0.00,,,0.00,Wunderground v.1.15,2013-11-28 09:25:00,
2013-11-28 03:30:00,28.9,21.3,30.37,SSE,164,0.0,0.0,73,0.00,,,0.00,Wunderground v.1.15,2013-11-28 09:30:00,
2013-11-28 03:35:00,28.8,21.2,30.37,SSE,164,0.0,0.0,73,0.00,,,0.00,Wunderground v.1.15,2013-11-28 09:35:00,
2013-11-28 03:45:00,28.7,21.5,30.37,SSE,163,0.0,0.0,74,0.00,,,0.00,Wunderground v.1.15,2013-11-28 09:45:00,
2013-11-28 03:50:00,28.7,21.5,30.37,SSE,163,0.0,0.0,74,0.00,,,0.00,Wunderground v.1.15,2013-11-28 09:50:00,
2013-11-28 03:55:00,28.6,21.4,30.36,SSE,163,0.0,0.0,74,0.00,,,0.00,Wunderground v.1.15,2013-11-28 09:55:00,
2013-11-28 04:00:00,28.5,21.3,30.37,SSE,164,0.0,0.0,74,0.00,,,0.00,Wunderground v.1.15,2013-11-28 10:00:00,
2013-11-28 04:10:00,28.2,21.3,30.36,SSE,163,0.0,0.0,75,0.00,,,0.00,Wunderground v.1.15,2013-11-28 10:10:00,
2013-11-28 04:15:00,28.0,21.4,30.37,SSE,163,0.0,0.0,76,0.00,,,0.00,Wunderground v.1.15,2013-11-28 10:15:00,
2013-11-28 04:25:00,28.1,21.8,30.37,SSE,164,0.0,0.0,77,0.00,,,0.00,Wunderground v.1.15,2013-11-28 10:25:00,
2013-11-28 04:30:00,28.3,22.0,30.36,SSE,165,1.0,1.0,77,0.00,,,0.00,Wunderground v.1.15,2013-11-28 10:30:00,
2013-11-28 04:35:00,28.7,22.4,30.36,SSE,167,2.0,2.0,77,0.00,,,0.00,Wunderground v.1.15,2013-11-28 10:35:00,
2013-11-28 04:40:00,29.2,22.6,30.36,South,171,3.0,6.0,76,0.00,,,0.00,Wunderground v.1.15,2013-11-28 10:40:00,
2013-11-28 04:50:00,30.1,22.8,30.36,South,185,4.0,4.0,74,0.00,,,0.00,Wunderground v.1.15,2013-11-28 10:50:00,
2013-11-28 04:55:00,30.6,23.0,30.37,South,188,4.0,4.0,73,0.00,,,0.00,Wunderground v.1.15,2013-11-28 10:55:00,
2013-11-28 05:00:00,31.0,23.0,30.37,South,188,4.0,5.0,72,0.00,,,0.00,Wunderground v.1.15,2013-11-28 11:00:00,
2013-11-28 05:10:00,31.3,23.0,30.37,South,188,3.0,3.0,71,0.00,,,0.00,Wunderground v.1.15,2013-11-28 11:10:00,
2013-11-28 05:15:00,31.2,22.9,30.37,South,188,0.0,3.0,71,0.00,,,0.00,Wunderground v.1.15,2013-11-28 11:15:00,
2013-11-28 05:20:00,31.0,22.7,30.38,South,188,0.0,0.0,71,0.00,,,0.00,Wunderground v.1.15,2013-11-28 11:20:00,
2013-11-28 05:25:00,30.7,22.4,30.38,South,188,1.0,1.0,71,0.00,,,0.00,Wunderground v.1.15,2013-11-28 11:25:00,
2013-11-28 05:35:00,30.4,22.4,30.38,South,188,0.0,2.0,72,0.00,,,0.00,Wunderground v.1.15,2013-11-28 11:35:00,
2013-11-28 05:40:00,30.3,22.7,30.38,South,188,0.0,2.0,73,0.00,,,0.00,Wunderground v.1.15,2013-11-28 11:40:00,
2013-11-28 05:45:00,30.3,22.7,30.39,South,188,0.0,2.0,73,0.00,,,0.00,Wunderground v.1.15,2013-11-28 11:45:00,
2013-11-28 05:50:00,30.4,22.8,30.39,South,188,0.0,0.0,73,0.00,,,0.00,Wunderground v.1.15,2013-11-28 11:50:00,
2013-11-28 05:55:00,30.4,23.1,30.39,South,188,0.0,0.0,74,0.00,,,0.00,Wunderground v.1.15,2013-11-28 11:55:00,
2013-11-28 06:00:00,30.5,23.2,30.39,South,188,0.0,0.0,74,0.00,,,0.00,Wunderground v.1.15,2013-11-28 12:00:00,
2013-11-28 06:10:00,30.7,23.1,30.39,South,188,0.0,0.0,73,0.00,,,0.00,Wunderground v.1.15,2013-11-28 12:10:00,
2013-11-28 06:20:00,30.8,23.5,30.39,South,188,0.0,0.0,74,0.00,,,0.00,Wunderground v.1.15,2013-11-28 12:20:00,
2013-11-28 06:25:00,30.8,23.5,30.40,South,188,0.0,0.0,74,0.00,,,0.00,Wunderground v.1.15,2013-11-28 12:25:00,
2013-11-28 06:30:00,30.8,23.5,30.40,South,188,0.0,0.0,74,0.00,,,0.00,Wunderground v.1.15,2013-11-28 12:30:00,
2013-11-28 06:35:00,30.7,23.7,30.40,South,188,0.0,0.0,75,0.00,,,0.00,Wunderground v.1.15,2013-11-28 12:35:00,
2013-11-28 06:45:00,30.7,23.7,30.40,South,188,0.0,0.0,75,0.00,,,0.00,Wunderground v.1.15,2013-11-28 12:45:00,
2013-11-28 06:50:00,30.6,23.9,30.40,South,188,0.0,0.0,76,0.00,,,0.00,Wunderground v.1.15,2013-11-28 12:50:00,
2013-11-28 06:55:00,30.4,23.7,30.40,South,188,0.0,0.0,76,0.00,,,0.00,Wunderground v.1.15,2013-11-28 12:55:00,
2013-11-28 07:00:00,30.3,23.6,30.40,South,188,0.0,0.0,76,0.00,,,0.00,Wunderground v.1.15,2013-11-28 13:00:00,
2013-11-28 07:10:00,30.0,23.7,30.41,South,188,0.0,0.0,77,0.00,,,0.00,Wunderground v.1.15,2013-11-28 13:10:00,
2013-11-28 07:15:00,29.9,23.9,30.41,South,188,0.0,0.0,78,0.00,,,0.00,Wunderground v.1.15,2013-11-28 13:15:00,
2013-11-28 07:20:00,29.8,23.8,30.41,South,188,0.0,0.0,78,0.00,,,0.00,Wunderground v.1.15,2013-11-28 13:20:00,
2013-11-28 07:30:00,29.6,23.9,30.42,South,188,0.0,0.0,79,0.00,,,0.00,Wunderground v.1.15,2013-11-28 13:30:00,
2013-11-28 07:35:00,29.6,23.9,30.42,South,188,0.0,0.0,79,0.00,,,0.00,Wunderground v.1.15,2013-11-28 13:35:00,
2013-11-28 07:40:00,29.6,23.9,30.42,South,188,0.0,0.0,79,0.00,,,0.00,Wunderground v.1.15,2013-11-28 13:40:00,
2013-11-28 07:45:00,29.6,24.2,30.42,South,188,0.0,0.0,80,0.00,,,0.00,Wunderground v.1.15,2013-11-28 13:45:00,
2013-11-28 07:50:00,29.6,24.2,30.42,South,188,0.0,0.0,80,0.00,,,0.00,Wunderground v.1.15,2013-11-28 13:50:00,
2013-11-28 08:00:00,30.0,24.9,30.43,South,188,0.0,0.0,81,0.00,,,0.00,Wunderground v.1.15,2013-11-28 14:00:00,
2013-11-28 08:10:00,30.9,25.8,30.43,South,189,1.0,3.0,81,0.00,,,0.00,Wunderground v.1.15,2013-11-28 14:10:00,
2013-11-28 08:15:00,31.6,25.8,30.43,South,188,2.0,3.0,79,0.00,,,0.00,Wunderground v.1.15,2013-11-28 14:15:00,
2013-11-28 08:20:00,32.2,26.1,30.43,South,188,3.0,3.0,78,0.00,,,0.00,Wunderground v.1.15,2013-11-28 14:20:00,
2013-11-28 08:25:00,33.4,26.6,30.43,South,187,2.0,3.0,76,0.00,,,0.00,Wunderground v.1.15,2013-11-28 14:25:00,
2013-11-28 08:30:00,34.0,26.6,30.43,South,188,1.0,2.0,74,0.00,,,0.00,Wunderground v.1.15,2013-11-28 14:30:00,
2013-11-28 08:40:00,36.4,27.9,30.44,South,186,0.0,1.0,71,0.00,,,0.00,Wunderground v.1.15,2013-11-28 14:40:00,
2013-11-28 08:45:00,37.4,27.8,30.43,South,187,0.0,1.0,68,0.00,,,0.00,Wunderground v.1.15,2013-11-28 14:45:00,
2013-11-28 08:50:00,37.8,27.5,30.43,South,191,1.0,1.0,66,0.00,,,0.00,Wunderground v.1.15,2013-11-28 14:50:00,
2013-11-28 08:55:00,37.7,27.4,30.43,South,169,1.0,1.0,66,0.00,,,0.00,Wunderground v.1.15,2013-11-28 14:55:00,
2013-11-28 09:00:00,38.0,26.9,30.44,South,184,2.0,2.0,64,0.00,,,0.00,Wunderground v.1.15,2013-11-28 15:00:00,
2013-11-28 09:10:00,38.8,27.7,30.44,South,189,3.0,3.0,64,0.00,,,0.00,Wunderground v.1.15,2013-11-28 15:10:00,
2013-11-28 09:15:00,39.1,27.6,30.44,SSW,193,4.0,6.0,63,0.00,,,0.00,Wunderground v.1.15,2013-11-28 15:15:00,
2013-11-28 09:25:00,40.1,28.1,30.44,SSW,197,3.0,4.0,62,0.00,,,0.00,Wunderground v.1.15,2013-11-28 15:25:00,
2013-11-28 09:30:00,41.0,27.8,30.44,SSW,209,2.0,3.0,59,0.00,,,0.00,Wunderground v.1.15,2013-11-28 15:30:00,
2013-11-28 09:35:00,41.5,28.6,30.44,SSW,199,3.0,3.0,60,0.00,,,0.00,Wunderground v.1.15,2013-11-28 15:35:00,
2013-11-28 09:40:00,42.3,29.0,30.44,SSW,205,2.0,7.0,59,0.00,,,0.00,Wunderground v.1.15,2013-11-28 15:40:00,
2013-11-28 09:45:00,42.9,28.7,30.44,SSW,211,3.0,7.0,57,0.00,,,0.00,Wunderground v.1.15,2013-11-28 15:45:00,
2013-11-28 09:55:00,43.7,29.0,30.44,SSW,203,5.0,5.0,56,0.00,,,0.00,Wunderground v.1.15,2013-11-28 15:55:00,
2013-11-28 10:00:00,43.9,28.8,30.45,South,190,5.0,7.0,55,0.00,,,0.00,Wunderground v.1.15,2013-11-28 16:00:00,
2013-11-28 10:10:00,44.5,28.9,30.45,South,189,5.0,5.0,54,0.00,,,0.00,Wunderground v.1.15,2013-11-28 16:10:00,
2013-11-28 10:15:00,44.4,29.2,30.45,SSE,167,5.0,5.0,55,0.00,,,0.00,Wunderground v.1.15,2013-11-28 16:15:00,
2013-11-28 10:20:00,44.5,28.9,30.45,SSW,192,4.0,4.0,54,0.00,,,0.00,Wunderground v.1.15,2013-11-28 16:20:00,
2013-11-28 10:25:00,45.1,29.4,30.45,South,178,4.0,5.0,54,0.00,,,0.00,Wunderground v.1.15,2013-11-28 16:25:00,
2013-11-28 10:30:00,45.7,29.1,30.44,South,182,4.0,4.0,52,0.00,,,0.00,Wunderground v.1.15,2013-11-28 16:30:00,
2013-11-28 10:40:00,46.4,29.2,30.44,South,187,4.0,8.0,51,0.00,,,0.00,Wunderground v.1.15,2013-11-28 16:40:00,
2013-11-28 10:45:00,46.8,29.6,30.44,SSW,194,5.0,8.0,51,0.00,,,0.00,Wunderground v.1.15,2013-11-28 16:45:00,
2013-11-28 10:50:00,47.2,30.0,30.44,SSW,201,3.0,3.0,51,0.00,,,0.00,Wunderground v.1.15,2013-11-28 16:50:00,
2013-11-28 10:55:00,47.8,29.0,30.44,South,177,4.0,4.0,48,0.00,,,0.00,Wunderground v.1.15,2013-11-28 16:55:00,
2013-11-28 11:00:00,47.6,28.9,30.44,SSW,194,5.0,5.0,48,0.00,,,0.00,Wunderground v.1.15,2013-11-28 17:00:00,
2013-11-28 11:10:00,48.8,30.5,30.44,South,188,2.0,2.0,49,0.00,,,0.00,Wunderground v.1.15,2013-11-28 17:10:00,
2013-11-28 11:20:00,49.4,29.5,30.44,SSW,192,3.0,7.0,46,0.00,,,0.00,Wunderground v.1.15,2013-11-28 17:20:00,
2013-11-28 11:25:00,48.9,29.0,30.44,SSW,212,3.0,7.0,46,0.00,,,0.00,Wunderground v.1.15,2013-11-28 17:25:00,
2013-11-28 11:30:00,49.0,30.1,30.44,SSW,209,2.0,2.0,48,0.00,,,0.00,Wunderground v.1.15,2013-11-28 17:30:00,
2013-11-28 11:35:00,49.6,30.7,30.43,SSW,200,1.0,4.0,48,0.00,,,0.00,Wunderground v.1.15,2013-11-28 17:35:00,
2013-11-28 11:40:00,50.3,30.3,30.43,SSW,201,1.0,1.0,46,0.00,,,0.00,Wunderground v.1.15,2013-11-28 17:40:00,
2013-11-28 11:50:00,50.8,30.2,30.43,SSW,204,1.0,1.0,45,0.00,,,0.00,Wunderground v.1.15,2013-11-28 17:50:00,
2013-11-28 11:55:00,51.9,30.1,30.42,SSW,199,1.0,4.0,43,0.00,,,0.00,Wunderground v.1.15,2013-11-28 17:55:00,
2013-11-28 12:00:00,52.0,29.6,30.42,SSW,213,3.0,3.0,42,0.00,,,0.00,Wunderground v.1.15,2013-11-28 18:00:00,
2013-11-28 12:10:00,49.6,28.6,30.42,SSE,165,4.0,4.0,44,0.00,,,0.00,Wunderground v.1.15,2013-11-28 18:10:00,
2013-11-28 12:15:00,49.0,28.6,30.41,South,191,3.0,4.0,45,0.00,,,0.00,Wunderground v.1.15,2013-11-28 18:15:00,
2013-11-28 12:20:00,49.2,29.3,30.41,South,189,2.0,2.0,46,0.00,,,0.00,Wunderground v.1.15,2013-11-28 18:20:00,
2013-11-28 12:25:00,49.2,29.3,30.41,South,171,1.0,6.0,46,0.00,,,0.00,Wunderground v.1.15,2013-11-28 18:25:00,
2013-11-28 12:30:00,48.8,28.9,30.41,SSW,192,4.0,4.0,46,0.00,,,0.00,Wunderground v.1.15,2013-11-28 18:30:00,
2013-11-28 12:40:00,49.1,28.7,30.40,South,184,3.0,3.0,45,0.00,,,0.00,Wunderground v.1.15,2013-11-28 18:40:00,
2013-11-28 12:45:00,49.0,29.1,30.40,SSE,160,3.0,5.0,46,0.00,,,0.00,Wunderground v.1.15,2013-11-28 18:45:00,
2013-11-28 12:50:00,49.3,28.8,30.40,South,190,3.0,7.0,45,0.00,,,0.00,Wunderground v.1.15,2013-11-28 18:50:00,
2013-11-28 13:00:00,49.1,29.2,30.39,SSW,198,1.0,2.0,46,0.00,,,0.00,Wunderground v.1.15,2013-11-28 19:00:00,
2013-11-28 13:10:00,48.8,28.9,30.39,South,181,1.0,1.0,46,0.00,,,0.00,Wunderground v.1.15,2013-11-28 19:10:00,
2013-11-28 13:20:00,49.0,29.6,30.39,South,184,1.0,1.0,47,0.00,,,0.00,Wunderground v.1.15,2013-11-28 19:20:00,
2013-11-28 13:25:00,51.1,31.0,30.39,SSE,164,3.0,3.0,46,0.00,,,0.00,Wunderground v.1.15,2013-11-28 19:25:00,
2013-11-28 13:30:00,52.0,30.2,30.38,South,173,4.0,9.0,43,0.00,,,0.00,Wunderground v.1.15,2013-11-28 19:30:00,
2013-11-28 13:35:00,51.4,29.1,30.38,SSE,160,3.0,9.0,42,0.00,,,0.00,Wunderground v.1.15,2013-11-28 19:35:00,
2013-11-28 13:45:00,50.7,30.1,30.38,South,171,4.0,6.0,45,0.00,,,0.00,Wunderground v.1.15,2013-11-28 19:45:00,
2013-11-28 13:50:00,52.0,30.2,30.38,SSE,165,5.0,8.0,43,0.00,,,0.00,Wunderground v.1.15,2013-11-28 19:50:00,
2013-11-28 13:55:00,53.0,31.6,30.38,SSE,150,5.0,8.0,44,0.00,,,0.00,Wunderground v.1.15,2013-11-28 19:55:00,
2013-11-28 14:00:00,53.6,31.6,30.37,SSE,150,4.0,6.0,43,0.00,,,0.00,Wunderground v.1.15,2013-11-28 20:00:00,
2013-11-28 14:10:00,53.8,31.8,30.37,SE,135,5.0,5.0,43,0.00,,,0.00,Wunderground v.1.15,2013-11-28 20:10:00,
2013-11-28 14:15:00,54.2,31.6,30.37,SE,142,4.0,8.0,42,0.00,,,0.00,Wunderground v.1.15,2013-11-28 20:15:00,
2013-11-28 14:20:00,54.1,29.7,30.37,South,186,5.0,5.0,39,0.00,,,0.00,Wunderground v.1.15,2013-11-28 20:20:00,
2013-11-28 14:25:00,54.3,30.5,30.37,South,185,4.0,5.0,40,0.00,,,0.00,Wunderground v.1.15,2013-11-28 20:25:00,
2013-11-28 14:35:00,55.1,29.9,30.36,SSE,149,5.0,5.0,38,0.00,,,0.00,Wunderground v.1.15,2013-11-28 20:35:00,
2013-11-28 14:40:00,54.8,29.7,30.36,SE,135,5.0,8.0,38,0.00,,,0.00,Wunderground v.1.15,2013-11-28 20:40:00,
2013-11-28 14:45:00,54.6,29.5,30.36,SE,135,6.0,8.0,38,0.00,,,0.00,Wunderground v.1.15,2013-11-28 20:45:00,
2013-11-28 14:50:00,55.0,29.8,30.36,SE,125,6.0,6.0,38,0.00,,,0.00,Wunderground v.1.15,2013-11-28 20:50:00,
2013-11-28 14:55:00,55.1,29.9,30.37,SSE,154,5.0,6.0,38,0.00,,,0.00,Wunderground v.1.15,2013-11-28 20:55:00,
2013-11-28 15:00:00,54.9,29.1,30.37,SSE,151,5.0,7.0,37,0.00,,,0.00,Wunderground v.1.15,2013-11-28 21:00:00,
2013-11-28 15:10:00,55.0,29.8,30.37,SE,143,5.0,5.0,38,0.00,,,0.00,Wunderground v.1.15,2013-11-28 21:10:00,
2013-11-28 15:15:00,54.8,28.3,30.36,SSE,157,6.0,6.0,36,0.00,,,0.00,Wunderground v.1.15,2013-11-28 21:15:00,
2013-11-28 15:20:00,54.6,28.8,30.37,SE,143,5.0,9.0,37,0.00,,,0.00,Wunderground v.1.15,2013-11-28 21:20:00,
2013-11-28 15:25:00,54.5,28.7,30.37,South,171,5.0,9.0,37,0.00,,,0.00,Wunderground v.1.15,2013-11-28 21:25:00,
2013-11-28 15:30:00,54.6,28.2,30.37,SSE,155,6.0,7.0,36,0.00,,,0.00,Wunderground v.1.15,2013-11-28 21:30:00,
2013-11-28 15:35:00,54.4,29.3,30.37,SSE,156,5.0,7.0,38,0.00,,,0.00,Wunderground v.1.15,2013-11-28 21:35:00,
2013-11-28 15:45:00,54.3,27.9,30.37,SSE,163,4.0,7.0,36,0.00,,,0.00,Wunderground v.1.15,2013-11-28 21:45:00,
2013-11-28 15:50:00,54.2,29.1,30.37,South,175,4.0,7.0,38,0.00,,,0.00,Wunderground v.1.15,2013-11-28 21:50:00,
2013-11-28 15:55:00,54.3,27.9,30.37,SSE,163,5.0,7.0,36,0.00,,,0.00,Wunderground v.1.15,2013-11-28 21:55:00,
2013-11-28 16:00:00,54.1,28.4,30.37,SE,142,4.0,8.0,37,0.00,,,0.00,Wunderground v.1.15,2013-11-28 22:00:00,
2013-11-28 16:10:00,53.9,27.5,30.37,South,169,5.0,5.0,36,0.00,,,0.00,Wunderground v.1.15,2013-11-28 22:10:00,
2013-11-28 16:15:00,53.7,27.4,30.37,SSE,167,5.0,5.0,36,0.00,,,0.00,Wunderground v.1.15,2013-11-28 22:15:00,
2013-11-28 16:20:00,53.4,27.1,30.38,SSE,158,5.0,7.0,36,0.00,,,0.00,Wunderground v.1.15,2013-11-28 22:20:00,
2013-11-28 16:30:00,53.2,26.9,30.38,South,175,3.0,6.0,36,0.00,,,0.00,Wunderground v.1.15,2013-11-28 22:30:00,
2013-11-28 16:35:00,53.2,27.6,30.38,South,177,3.0,6.0,37,0.00,,,0.00,Wunderground v.1.15,2013-11-28 22:35:00,
2013-11-28 16:40:00,53.0,27.4,30.38,South,177,2.0,6.0,37,0.00,,,0.00,Wunderground v.1.15,2013-11-28 22:40:00,
2013-11-28 16:45:00,52.7,27.1,30.38,South,183,2.0,6.0,37,0.00,,,0.00,Wunderground v.1.15,2013-11-28 22:45:00,
2013-11-28 16:55:00,51.7,26.9,30.38,South,171,3.0,5.0,38,0.00,,,0.00,Wunderground v.1.15,2013-11-28 22:55:00,
2013-11-28 17:00:00,51.1,27.0,30.38,SSE,167,4.0,4.0,39,0.00,,,0.00,Wunderground v.1.15,2013-11-28 23:00:00,
2013-11-28 17:10:00,50.2,27.4,30.39,SSE,167,0.0,0.0,41,0.00,,,0.00,Wunderground v.1.15,2013-11-28 23:10:00,
2013-11-28 17:15:00,49.8,27.6,30.39,SSE,167,0.0,0.0,42,0.00,,,0.00,Wunderground v.1.15,2013-11-28 23:15:00,
2013-11-28 17:20:00,49.3,27.7,30.39,SSE,167,0.0,0.0,43,0.00,,,0.00,Wunderground v.1.15,2013-11-28 23:20:00,
2013-11-28 17:25:00,49.0,28.0,30.39,SSE,164,1.0,2.0,44,0.00,,,0.00,Wunderground v.1.15,2013-11-28 23:25:00,
2013-11-28 17:35:00,47.7,29.5,30.39,SSE,161,3.0,4.0,49,0.00,,,0.00,Wunderground v.1.15,2013-11-28 23:35:00,
2013-11-28 17:40:00,47.2,30.0,30.39,SSE,161,3.0,5.0,51,0.00,,,0.00,Wunderground v.1.15,2013-11-28 23:40:00,
2013-11-28 17:45:00,46.7,30.0,30.40,SSE,161,3.0,6.0,52,0.00,,,0.00,Wunderground v.1.15,2013-11-28 23:45:00,
2013-11-28 17:50:00,46.3,30.1,30.40,SSE,161,3.0,3.0,53,0.00,,,0.00,Wunderground v.1.15,2013-11-28 23:50:00,
2013-11-28 18:00:00,45.6,30.3,30.40,SSE,161,0.0,0.0,55,0.00,,,0.00,Wunderground v.1.15,2013-11-29 00:00:00,
2013-11-28 18:10:00,44.8,30.5,30.41,SSE,161,0.0,0.0,57,0.00,,,0.00,Wunderground v.1.15,2013-11-29 00:10:00,
2013-11-28 18:20:00,44.1,30.3,30.41,SSE,161,0.0,0.0,58,0.00,,,0.00,Wunderground v.1.15,2013-11-29 00:20:00,
2013-11-28 18:25:00,43.7,30.3,30.41,SSE,161,0.0,0.0,59,0.00,,,0.00,Wunderground v.1.15,2013-11-29 00:25:00,
2013-11-28 18:30:00,43.4,30.4,30.41,SSE,161,0.0,0.0,60,0.00,,,0.00,Wunderground v.1.15,2013-11-29 00:30:00,
2013-11-28 18:35:00,42.9,30.0,30.41,SSE,161,0.0,0.0,60,0.00,,,0.00,Wunderground v.1.15,2013-11-29 00:35:00,
2013-11-28 18:45:00,42.1,30.4,30.41,SSE,161,0.0,0.0,63,0.00,,,0.00,Wunderground v.1.15,2013-11-29 00:45:00,
2013-11-28 18:50:00,41.6,30.3,30.41,SSE,161,0.0,0.0,64,0.00,,,0.00,Wunderground v.1.15,2013-11-29 00:50:00,
2013-11-28 18:55:00,41.3,30.0,30.41,SSE,161,0.0,0.0,64,0.00,,,0.00,Wunderground v.1.15,2013-11-29 00:55:00,
2013-11-28 19:00:00,40.8,29.9,30.41,SSE,161,0.0,0.0,65,0.00,,,0.00,Wunderground v.1.15,2013-11-29 01:00:00,
2013-11-28 19:10:00,40.3,29.8,30.42,SSE,161,0.0,0.0,66,0.00,,,0.00,Wunderground v.1.15,2013-11-29 01:10:00,
2013-11-28 19:15:00,40.2,29.7,30.42,SSE,161,0.0,0.0,66,0.00,,,0.00,Wunderground v.1.15,2013-11-29 01:15:00,
2013-11-28 19:20:00,40.1,30.0,30.42,SSE,161,0.0,0.0,67,0.00,,,0.00,Wunderground v.1.15,2013-11-29 01:20:00,
2013-11-28 19:30:00,39.6,29.5,30.42,SSE,161,0.0,0.0,67,0.00,,,0.00,Wunderground v.1.15,2013-11-29 01:30:00,
2013-11-28 19:35:00,39.3,29.6,30.42,SSE,161,0.0,0.0,68,0.00,,,0.00,Wunderground v.1.15,2013-11-29 01:35:00,
2013-11-28 19:40:00,39.0,29.7,30.43,SSE,161,0.0,0.0,69,0.00,,,0.00,Wunderground v.1.15,2013-11-29 01:40:00,
2013-11-28 19:45:00,38.8,29.8,30.43,SSE,161,0.0,0.0,70,0.00,,,0.00,Wunderground v.1.15,2013-11-29 01:45:00,
2013-11-28 19:50:00,38.6,29.7,30.43,SSE,161,0.0,0.0,70,0.00,,,0.00,Wunderground v.1.15,2013-11-29 01:50:00,
2013-11-28 20:00:00,38.0,29.8,30.43,SSE,161,0.0,0.0,72,0.00,,,0.00,Wunderground v.1.15,2013-11-29 02:00:00,
2013-11-28 20:10:00,37.7,29.8,30.43,SSE,161,0.0,0.0,73,0.00,,,0.00,Wunderground v.1.15,2013-11-29 02:10:00,
2013-11-28 20:15:00,37.4,29.2,30.43,SSE,161,0.0,0.0,72,0.00,,,0.00,Wunderground v.1.15,2013-11-29 02:15:00,
2013-11-28 20:20:00,37.1,29.2,30.43,SSE,161,0.0,0.0,73,0.00,,,0.00,Wunderground v.1.15,2013-11-29 02:20:00,
2013-11-28 20:25:00,36.9,29.4,30.43,SSE,161,0.0,0.0,74,0.00,,,0.00,Wunderground v.1.15,2013-11-29 02:25:00,
2013-11-28 20:30:00,36.7,29.5,30.44,SSE,161,0.0,0.0,75,0.00,,,0.00,Wunderground v.1.15,2013-11-29 02:30:00,
2013-11-28 20:35:00,36.6,29.4,30.44,SSE,161,0.0,0.0,75,0.00,,,0.00,Wunderground v.1.15,2013-11-29 02:35:00,
2013-11-28 20:45:00,36.2,29.0,30.44,SSE,161,0.0,0.0,75,0.00,,,0.00,Wunderground v.1.15,2013-11-29 02:45:00,
2013-11-28 20:50:00,35.9,29.1,30.44,SSE,161,0.0,0.0,76,0.00,,,0.00,Wunderground v.1.15,2013-11-29 02:50:00,
2013-11-28 20:55:00,35.7,28.9,30.44,SSE,161,0.0,0.0,76,0.00,,,0.00,Wunderground v.1.15,2013-11-29 02:55:00,
2013-11-28 21:00:00,35.6,29.1,30.44,SSE,161,0.0,0.0,77,0.00,,,0.00,Wunderground v.1.15,2013-11-29 03:00:00,
2013-11-28 21:10:00,35.3,29.1,30.44,SSE,161,0.0,0.0,78,0.00,,,0.00,Wunderground v.1.15,2013-11-29 03:10:00,
2013-11-28 21:15:00,35.1,28.9,30.45,SSE,161,0.0,0.0,78,0.00,,,0.00,Wunderground v.1.15,2013-11-29 03:15:00,
2013-11-28 21:25:00,34.8,29.0,30.45,SSE,161,0.0,0.0,79,0.00,,,0.00,Wunderground v.1.15,2013-11-29 03:25:00,
2013-11-28 21:30:00,34.6,28.8,30.45,SSE,161,0.0,0.0,79,0.00,,,0.00,Wunderground v.1.15,2013-11-29 03:30:00,
2013-11-28 21:35:00,34.4,28.9,30.45,SSE,161,0.0,0.0,80,0.00,,,0.00,Wunderground v.1.15,2013-11-29 03:35:00,
2013-11-28 21:40:00,34.2,28.7,30.45,SSE,161,0.0,0.0,80,0.00,,,0.00,Wunderground v.1.15,2013-11-29 03:40:00,
2013-11-28 21:45:00,34.1,28.6,30.46,SSE,161,0.0,0.0,80,0.00,,,0.00,Wunderground v.1.15,2013-11-29 03:45:00,
2013-11-28 21:55:00,33.8,28.6,30.46,SSE,161,0.0,0.0,81,0.00,,,0.00,Wunderground v.1.15,2013-11-29 03:55:00,
2013-11-28 22:00:00,33.8,28.6,30.45,SSE,161,0.0,0.0,81,0.00,,,0.00,Wunderground v.1.15,2013-11-29 04:00:00,
2013-11-28 22:10:00,33.9,29.0,30.46,SSE,161,0.0,0.0,82,0.00,,,0.00,Wunderground v.1.15,2013-11-29 04:10:00,
2013-11-28 22:15:00,33.9,29.0,30.45,SSE,161,0.0,0.0,82,0.00,,,0.00,Wunderground v.1.15,2013-11-29 04:15:00,
2013-11-28 22:20:00,33.8,28.9,30.46,SSE,161,0.0,0.0,82,0.00,,,0.00,Wunderground v.1.15,2013-11-29 04:20:00,
2013-11-28 22:25:00,33.7,28.8,30.46,SSE,161,0.0,0.0,82,0.00,,,0.00,Wunderground v.1.15,2013-11-29 04:25:00,
2013-11-28 22:30:00,33.5,28.6,30.46,SSE,161,0.0,0.0,82,0.00,,,0.00,Wunderground v.1.15,2013-11-29 04:30:00,
2013-11-28 22:40:00,33.3,28.4,30.45,SSE,161,0.0,0.0,82,0.00,,,0.00,Wunderground v.1.15,2013-11-29 04:40:00,
2013-11-28 22:45:00,33.1,28.2,30.46,SSE,161,0.0,0.0,82,0.00,,,0.00,Wunderground v.1.15,2013-11-29 04:45:00,
2013-11-28 22:50:00,33.0,28.1,30.46,SSE,161,0.0,0.0,82,0.00,,,0.00,Wunderground v.1.15,2013-11-29 04:50:00,
2013-11-28 22:55:00,32.8,28.2,30.46,SSE,161,0.0,0.0,83,0.00,,,0.00,Wunderground v.1.15,2013-11-29 04:55:00,
2013-11-28 23:00:00,32.7,28.1,30.46,SSE,161,0.0,0.0,83,0.00,,,0.00,Wunderground v.1.15,2013-11-29 05:00:00,
2013-11-28 23:05:00,32.6,28.0,30.46,SSE,161,0.0,0.0,83,0.00,,,0.00,Wunderground v.1.15,2013-11-29 05:05:00,
2013-11-28 23:10:00,32.7,28.1,30.46,SSE,161,0.0,0.0,83,0.00,,,0.00,Wunderground v.1.15,2013-11-29 05:10:00,
2013-11-28 23:15:00,32.7,28.1,30.46,SSE,161,0.0,0.0,83,0.00,,,0.00,Wunderground v.1.15,2013-11-29 05:15:00,
2013-11-28 23:20:00,32.7,28.1,30.46,SSE,161,0.0,0.0,83,0.00,,,0.00,Wunderground v.1.15,2013-11-29 05:20:00,
2013-11-28 23:25:00,32.6,28.0,30.46,SSE,161,0.0,0.0,83,0.00,,,0.00,Wunderground v.1.15,2013-11-29 05:25:00,
2013-11-28 23:30:00,32.6,28.0,30.46,SSE,161,0.0,0.0,83,0.00,,,0.00,Wunderground v.1.15,2013-11-29 05:30:00,
2013-11-28 23:35:00,32.5,27.9,30.46,SSE,161,0.0,0.0,83,0.00,,,0.00,Wunderground v.1.15,2013-11-29 05:35:00,
2013-11-28 23:40:00,32.5,28.2,30.46,SSE,161,0.0,0.0,84,0.00,,,0.00,Wunderground v.1.15,2013-11-29 05:40:00,
2013-11-28 23:45:00,32.4,28.1,30.46,SSE,161,0.0,0.0,84,0.00,,,0.00,Wunderground v.1.15,2013-11-29 05:45:00,
2013-11-28 23:50:00,32.4,28.1,30.46,SSE,161,0.0,0.0,84,0.00,,,0.00,Wunderground v.1.15,2013-11-29 05:50:00,
2013-11-28 23:55:00,32.3,28.0,30.46,SSE,161,0.0,0.0,84,0.00,,,0.00,Wunderground v.1.15,2013-11-29 05:55:00,